Date String (YYYY-MM-DD hh:mm:ss) UTC,Instrument flags,absolute air pressure of the measurement (hPa),sample flow rate (lpm),inlet stack bypass flow (lpm),air temperature of the measurement (°C),ambient temperature measured by the external sensor (°C),aerosol sample conditioner tube jacket temperature (°C),OPC LED temperature (°C),internal box temperature (°C),relative humidity of the measurement (%),span deviation,mass concentration of particles derived from Lorenz-Mie calculation of OPC scattering (μg/m³),mass concentration of particles derived from Lorenz-Mie calculation of OPC scattering (μg/m³),mass concentration of particles derived from Lorenz-Mie calculation of OPC scattering (μg/m³)
DateTimeUTC,F1_M11,P_M11,Q1_M11,Q2_M11,T1_M11,T2_M11,T3_M11,T4_M11,T5_M11,U1_M11,ZSPAN_M11,X0_M11,X2_M11,X1_M11
2024-03-11 18:00:00,SystemResetWarning,0825.5,4.99,000.00,019.8,019.2,000.0,028.1,021.6,10.8,0000.0,0010.43,0003.25,0001.42
2024-03-11 18:01:00,SystemResetWarning,0825.5,5.00,000.00,019.8,019.2,000.0,028.2,021.6,10.8,0000.0,0010.46,0003.25,0001.44
2024-03-11 18:02:00,SystemResetWarning,0825.4,5.00,000.00,019.8,019.2,000.0,028.2,021.6,11.0,0000.0,0010.29,0003.22,0001.44
2024-03-11 18:03:00,SystemResetWarning,0825.4,5.01,000.00,019.8,019.3,000.0,028.2,021.6,11.4,0000.0,0009.89,0003.20,0001.44
2024-03-11 18:04:00,SystemResetWarning,0825.3,5.00,000.00,019.8,019.3,000.0,028.2,021.6,10.8,0000.0,0009.70,0003.23,0001.44
2024-03-11 18:05:00,SystemResetWarning,0825.4,5.00,000.00,019.8,019.2,000.0,028.2,021.6,10.5,0000.0,0009.44,0003.27,0001.43
2024-03-11 18:06:00,SystemResetWarning,0825.3,5.00,000.00,019.8,019.3,000.0,028.2,021.6,10.5,0000.0,0009.50,0003.23,0001.41
2024-03-11 18:07:00,SystemResetWarning,0825.3,5.01,000.00,019.8,019.3,000.0,028.2,021.6,10.4,0000.0,0009.05,0003.19,0001.41
2024-03-11 18:08:00,SystemResetWarning,0825.4,4.99,000.00,019.9,019.3,000.0,028.2,021.6,10.5,0000.0,0009.81,0003.17,0001.41
2024-03-11 18:09:00,SystemResetWarning,0825.5,4.99,000.00,019.9,019.3,000.0,028.2,021.6,10.5,0000.0,0009.53,0003.20,0001.41
2024-03-11 18:10:00,SystemResetWarning,0825.6,4.99,000.00,019.9,019.3,000.0,028.2,021.6,10.7,0000.0,0009.52,0003.19,0001.41
2024-03-11 18:11:00,SystemResetWarning,0825.5,5.00,000.00,019.9,019.3,000.0,028.2,021.6,10.4,0000.0,0009.78,0003.22,0001.43
2024-03-11 18:12:00,SystemResetWarning,0825.5,5.00,000.00,019.9,019.3,000.0,028.2,021.6,10.4,0000.0,0009.81,0003.23,0001.41
2024-03-11 18:13:00,SystemResetWarning,0825.4,5.01,000.00,019.9,019.4,000.0,028.2,021.7,10.4,0000.0,0009.92,0003.26,0001.41
2024-03-11 18:14:00,SystemResetWarning,0825.4,5.00,000.00,019.9,019.4,000.0,028.2,021.7,10.4,0000.0,0009.79,0003.26,0001.42
2024-03-11 18:15:00,SystemResetWarning,0825.3,5.01,000.00,019.9,019.4,000.0,028.2,021.7,10.6,0000.0,0009.87,0003.28,0001.42
2024-03-11 18:16:00,SystemResetWarning,0825.2,5.00,000.00,019.9,019.4,000.0,028.2,021.7,10.8,0000.0,0009.46,0003.23,0001.43
2024-03-11 18:17:00,SystemResetWarning,0825.2,5.00,000.00,019.9,019.4,000.0,028.2,021.7,10.6,0000.0,0009.26,0003.25,0001.43
2024-03-11 18:18:00,SystemResetWarning,0825.2,5.00,000.00,019.9,019.4,000.0,028.2,021.7,10.3,0000.0,0009.33,0003.28,0001.44
2024-03-11 18:19:00,SystemResetWarning,0825.2,5.00,000.00,020.0,019.4,000.0,028.3,021.7,10.2,0000.0,0008.78,0003.26,0001.43
2024-03-11 18:20:00,SystemResetWarning,0825.1,5.00,000.00,020.0,019.4,000.0,028.3,021.7,10.2,0000.0,0009.68,0003.20,0001.41
2024-03-11 18:21:00,SystemResetWarning,0825.1,5.00,000.00,020.0,019.4,000.0,028.3,021.7,10.1,0000.0,0009.69,0003.18,0001.38
2024-03-11 18:22:00,SystemResetWarning,0825.1,5.00,000.00,020.0,019.4,000.0,028.3,021.7,10.2,0000.0,0009.52,0003.15,0001.38
2024-03-11 18:23:00,SystemResetWarning,0825.1,4.99,000.00,020.0,019.4,000.0,028.3,021.7,10.3,0000.0,0009.72,0003.21,0001.39
2024-03-11 18:24:00,SystemResetWarning,0825.0,4.99,000.00,020.0,019.4,000.0,028.3,021.7,10.3,0000.0,0009.74,0003.22,0001.38
2024-03-11 18:25:00,SystemResetWarning,0824.9,5.00,000.00,020.0,019.4,000.0,028.3,021.7,10.7,0000.0,0010.02,0003.30,0001.38
2024-03-11 18:26:00,SystemResetWarning,0824.9,5.00,000.00,020.0,019.4,000.0,028.3,021.7,10.6,0000.0,0010.63,0003.27,0001.38
2024-03-11 18:27:00,SystemResetWarning,0825.0,5.00,000.00,020.0,019.4,000.0,028.3,021.7,10.7,0000.0,0011.21,0003.32,0001.38
2024-03-11 18:28:00,SystemResetWarning,0825.0,5.00,000.00,020.0,019.4,000.0,028.3,021.7,11.0,0000.0,0011.66,0003.37,0001.38
2024-03-11 18:29:00,SystemResetWarning,0824.9,5.00,000.00,020.0,019.4,000.0,028.3,021.7,10.6,0000.0,0011.65,0003.39,0001.39
2024-03-11 18:30:00,SystemResetWarning,0824.9,4.99,000.00,020.0,019.4,000.0,028.3,021.7,10.6,0000.0,0011.82,0003.49,0001.42
2024-03-11 18:31:00,SystemResetWarning,0825.0,4.99,000.00,020.0,019.4,000.0,028.3,021.7,10.2,0000.0,0010.92,0003.55,0001.43
2024-03-11 18:32:00,SystemResetWarning,0825.0,5.00,000.00,020.0,019.4,000.0,028.3,021.7,10.5,0000.0,0010.85,0003.57,0001.43
2024-03-11 18:33:00,SystemResetWarning,0824.9,5.00,000.00,020.0,019.4,000.0,028.3,021.7,11.0,0000.0,0010.66,0003.54,0001.42
2024-03-11 18:34:00,SystemResetWarning,0825.0,5.01,000.00,020.0,019.4,000.0,028.3,021.7,10.7,0000.0,0010.57,0003.56,0001.43
2024-03-11 18:35:00,SystemResetWarning,0824.9,5.00,000.00,020.0,019.4,000.0,028.3,021.7,10.7,0000.0,0010.53,0003.55,0001.43
2024-03-11 18:36:00,SystemResetWarning,0824.9,5.01,000.00,020.0,019.4,000.0,028.3,021.7,10.6,0000.0,0011.14,0003.54,0001.43
2024-03-11 18:37:00,SystemResetWarning,0824.9,5.00,000.00,020.0,019.4,000.0,028.4,021.8,10.3,0000.0,0012.21,0003.61,0001.43
2024-03-11 18:38:00,SystemResetWarning,0824.9,5.00,000.00,020.0,019.4,000.0,028.4,021.8,10.7,0000.0,0011.97,0003.61,0001.42
2024-03-11 18:39:00,SystemResetWarning,0824.9,4.99,000.00,020.0,019.4,000.0,028.4,021.8,10.7,0000.0,0011.75,0003.61,0001.44
2024-03-11 18:40:00,SystemResetWarning,0824.9,5.00,000.00,020.1,019.4,000.0,028.4,021.8,10.7,0000.0,0012.07,0003.63,0001.45
2024-03-11 18:41:00,SystemResetWarning,0824.9,5.00,000.00,020.1,019.5,000.0,028.4,021.8,11.0,0000.0,0011.65,0003.61,0001.44
2024-03-11 18:42:00,SystemResetWarning,0824.9,5.00,000.00,020.1,019.5,000.0,028.4,021.8,11.3,0000.0,0011.40,0003.56,0001.44
2024-03-11 18:43:00,SystemResetWarning,0824.9,5.00,000.00,020.1,019.5,000.0,028.4,021.8,10.7,0000.0,0011.19,0003.56,0001.46
2024-03-11 18:44:00,SystemResetWarning,0824.9,4.99,000.00,020.1,019.5,000.0,028.4,021.8,10.6,0000.0,0011.57,0003.62,0001.46
2024-03-11 18:45:00,SystemResetWarning,0824.9,5.00,000.00,020.1,019.5,000.0,028.4,021.8,10.2,0000.0,0011.64,0003.63,0001.45
2024-03-11 18:46:00,SystemResetWarning,0824.8,4.99,000.00,020.1,019.5,000.0,028.4,021.8,10.5,0000.0,0012.00,0003.65,0001.45
2024-03-11 18:47:00,SystemResetWarning,0824.8,5.00,000.00,020.1,019.6,000.0,028.4,021.9,11.1,0000.0,0011.95,0003.65,0001.46
2024-03-11 18:48:00,SystemResetWarning,0824.8,5.00,000.00,020.1,019.6,000.0,028.4,021.9,11.0,0000.0,0010.17,0003.62,0001.46
2024-03-11 18:49:00,SystemResetWarning,0824.8,5.00,000.00,020.1,019.6,000.0,028.4,021.9,10.9,0000.0,0010.14,0003.60,0001.46
2024-03-11 18:50:00,SystemResetWarning,0824.9,5.00,000.00,020.1,019.6,000.0,028.4,021.9,10.6,0000.0,0010.14,0003.57,0001.44
2024-03-11 18:51:00,SystemResetWarning,0824.8,5.01,000.00,020.2,019.6,000.0,028.4,021.9,10.6,0000.0,0009.56,0003.54,0001.43
2024-03-11 18:52:00,SystemResetWarning,0824.8,5.00,000.00,020.2,019.6,000.0,028.5,021.9,10.5,0000.0,0009.78,0003.55,0001.43
2024-03-11 18:53:00,SystemResetWarning,0824.7,5.01,000.00,020.2,019.6,000.0,028.5,021.9,10.8,0000.0,0010.44,0003.60,0001.44
2024-03-11 18:54:00,SystemResetWarning,0824.7,5.00,000.00,020.2,019.6,000.0,028.5,021.9,10.8,0000.0,0011.00,0003.62,0001.45
2024-03-11 18:55:00,SystemResetWarning,0824.7,5.00,000.00,020.2,019.6,000.0,028.5,021.9,10.6,0000.0,0010.75,0003.61,0001.45
2024-03-11 18:56:00,SystemResetWarning,0824.7,4.99,000.00,020.2,019.6,000.0,028.5,021.9,10.6,0000.0,0010.68,0003.59,0001.45
2024-03-11 18:57:00,SystemResetWarning,0824.7,4.99,000.00,020.2,019.7,000.0,028.5,021.9,10.5,0000.0,0010.96,0003.59,0001.45
2024-03-11 18:58:00,SystemResetWarning,0824.7,4.99,000.00,020.2,019.7,000.0,028.5,022.0,10.7,0000.0,0010.58,0003.57,0001.45
2024-03-11 18:59:00,SystemResetWarning,0824.8,5.00,000.00,020.2,019.7,000.0,028.5,022.0,10.4,0000.0,0010.69,0003.59,0001.47
